Weather History for KACK - January, 2014

Change the Weather History Date:

Sunday, January 5, 2014

  Actual Average Record
Temperature  
Mean Temperature 36 °F -  
Max Temperature 45 °F 36 °F 57 °F (1950)
Min Temperature 27 °F 22 °F 2 °F (1981)
Degree Days  
Heating Degree Days 30    
Moisture  
Dew Point 35 °F    
Average Humidity 88    
Maximum Humidity 97    
Minimum Humidity 73    
Precipitation  
Precipitation 0.03 in - - ()
Sea Level Pressure  
Sea Level Pressure 30.24 in    
Wind  
Wind Speed 10 mph (South)    
Max Wind Speed 18 mph    
Max Gust Speed -    
Visibility 8 miles    
Events Rain    
Averages and records for this station are not official NWS values.
T = Trace of Precipitation, MM = Missing Value Source: NWS Daily Summary

Daily Weather History Graph

Daily Weather History Graph

Search for Another Location

Airport or City:

Trip Planner

Search our weather history database for the weather conditions in past years. The results will help you decide how hot, cold, wet, or windy it might be!

Date:

Astronomy

Jan. 05, 2014 Rise Set
Actual Time 7:06 AM EST 4:25 PM EST
Civil Twilight 6:35 AM EST 4:56 PM EST
Nautical Twilight 6:00 AM EST 5:31 PM EST
Astronomical Twilight 5:27 AM EST 6:04 PM EST
Moon 9:42 AM EST 9:53 PM EST
Length of Visible Light 10h 21m
Length of Day
9h 19m
Waxing Crescent, 24% of the Moon is Illuminated
Jan 5
Waxing Crescent
Jan 7
First Quarter
Jan 15
Full
Jan 24
Last Quarter
Jan 30
New

Hourly Weather History & Observations

Time (EST) Temp. Windchill Dew Point Humidity Pressure Visibility Wind Dir Wind Speed Gust Speed Precip Events Conditions
12:53 AM 39.0 °F 29.6 °F 30.9 °F 73% 30.30 in 10.0 mi SW 18.4 mph - N/A   Clear
1:53 AM 39.0 °F 31.0 °F 33.1 °F 79% 30.30 in 7.0 mi WSW 13.8 mph - N/A   Clear
2:53 AM 37.0 °F 30.4 °F 33.1 °F 86% 30.29 in 6.0 mi SW 9.2 mph - N/A   Partly Cloudy
3:53 AM 35.1 °F 29.3 °F 30.9 °F 85% 30.29 in 10.0 mi NNW 6.9 mph - N/A   Mostly Cloudy
4:53 AM 33.1 °F 27.7 °F 28.9 °F 85% 30.31 in 10.0 mi NW 5.8 mph - N/A   Mostly Cloudy
5:00 AM 33.8 °F 28.6 °F 28.4 °F 81% 30.32 in 10.0 mi NW 5.8 mph - N/A   Mostly Cloudy
5:09 AM 33.8 °F 27.7 °F 28.4 °F 81% 30.32 in 10.0 mi NW 6.9 mph - N/A   Mostly Cloudy
5:41 AM 32.0 °F - 28.4 °F 87% 30.32 in 10.0 mi Calm Calm - N/A   Scattered Clouds
5:53 AM 30.0 °F - 26.1 °F 85% 30.33 in 10.0 mi Calm Calm - N/A   Partly Cloudy
6:53 AM 27.0 °F 20.5 °F 24.1 °F 89% 30.33 in 6.0 mi SSW 5.8 mph - N/A   Clear
7:53 AM 35.1 °F 28.6 °F 32.0 °F 89% 30.34 in 7.0 mi SSW 8.1 mph - N/A   Partly Cloudy
8:53 AM 37.9 °F 33.5 °F 34.0 °F 86% 30.35 in 8.0 mi SSW 5.8 mph - N/A   Overcast
9:53 AM 39.0 °F 34.0 °F 35.1 °F 86% 30.35 in 9.0 mi SSW 6.9 mph - N/A   Mostly Cloudy
10:53 AM 39.0 °F 35.7 °F 36.0 °F 89% 30.33 in 9.0 mi SSW 4.6 mph - N/A   Mostly Cloudy
11:34 AM 39.2 °F 35.0 °F 35.6 °F 87% 30.30 in 10.0 mi South 5.8 mph - N/A   Overcast
11:53 AM 39.9 °F 35.8 °F 37.0 °F 89% 30.30 in 10.0 mi South 5.8 mph - N/A   Overcast
12:53 PM 39.9 °F 35.8 °F 37.0 °F 89% 30.28 in 9.0 mi South 5.8 mph - N/A   Overcast
1:53 PM 41.0 °F 38.0 °F 37.9 °F 89% 30.27 in 10.0 mi SSE 4.6 mph - N/A   Overcast
2:17 PM 39.2 °F 33.0 °F 37.4 °F 93% 30.27 in 9.0 mi SE 9.2 mph - N/A   Mostly Cloudy
2:53 PM 39.9 °F 35.1 °F 37.9 °F 93% 30.28 in 9.0 mi SSE 6.9 mph - N/A   Overcast
3:53 PM 39.9 °F 35.1 °F 37.0 °F 89% 30.27 in 8.0 mi ESE 6.9 mph - N/A   Partly Cloudy
4:53 PM 39.9 °F 33.9 °F 37.9 °F 93% 30.25 in 10.0 mi East 9.2 mph - N/A   Scattered Clouds
5:53 PM 42.1 °F 34.5 °F 39.0 °F 89% 30.22 in 10.0 mi ESE 15.0 mph - N/A   Clear
6:53 PM 42.1 °F 34.9 °F 39.9 °F 92% 30.21 in 9.0 mi ESE 13.8 mph - N/A   Clear
7:53 PM 42.1 °F 35.2 °F 39.9 °F 92% 30.18 in 10.0 mi ESE 12.7 mph - N/A   Mostly Cloudy
8:53 PM 44.1 °F 37.4 °F 41.0 °F 89% 30.13 in 10.0 mi SE 13.8 mph - N/A   Overcast
9:53 PM 44.1 °F 37.1 °F 41.0 °F 89% 30.09 in 6.0 mi SE 15.0 mph - 0.00 in Rain Light Rain
10:53 PM 44.1 °F 37.1 °F 42.1 °F 93% 30.03 in 6.0 mi SE 15.0 mph - 0.02 in Rain Light Rain
11:20 PM 44.6 °F 37.8 °F 42.8 °F 93% 30.01 in 2.5 mi SE 15.0 mph - 0.00 in Rain Light Rain
11:46 PM 44.6 °F 37.2 °F 42.8 °F 93% 29.97 in 1.5 mi SE 17.3 mph - 0.01 in Rain Light Rain
11:53 PM 45.0 °F 37.6 °F 44.1 °F 97% 29.97 in 1.2 mi SE 17.3 mph - 0.01 in Rain Light Rain